Location: Starlight Observatory
(38.4029°N, 85.8936°W)
Time: 01:47:11
(UTC-04:00)

Amateur Radio Satellites - All Passes

Search period start: 23 July 2014 01:17
Search period end: 24 July 2014 01:17
Location: Starlight Observatory, 38.4029°N, 85.8936°W

Satellite Date Start Highest point End Downlink Frequencies (MHz)
Time Altitude Azimuth
Lituanica SAT-1 23 Jul 01:28:45 01:30:54 74° 322° (NW) 01:33:04 437.275 MHz beacon
UOSAT-12 23 Jul 01:56:32 02:01:15 65° 57° (ENE) 02:05:52 437.025 FM, 437.400 FM
Sapphire 23 Jul 02:03:53 02:07:38 19° 105° (ESE) 02:11:23 437.095 MHz 1200 baud AX-25 AFSK
ISS 23 Jul 02:08:12 02:11:07 28° 133° (SE) 02:14:03 145.800 FM
RS-15 23 Jul 02:12:28 02:22:32 42° 252° (WSW) 02:33:00 29.354 - 29.394 USB, Beacon 29.352 USB
PCSat 23 Jul 02:36:26 02:41:29 42° 111° (ESE) 02:46:34 145.825 MHz
Oscar 19 23 Jul 02:42:16 02:46:53 32° 97° (E) 02:51:28 437.125 CW, 437.150 USB
Oscar 16 23 Jul 03:09:05 03:14:12 63° 101° (ESE) 03:19:19 437.025 USB, Beacon 2401.1428
ITAMSAT 1 23 Jul 03:16:20 03:20:54 31° 97° (E) 03:25:26 435.822 SSB
Gurwin Techsat 1B 23 Jul 03:20:03 03:22:28 13° 90° (E) 03:24:52 435.225 FM
JAS-1B 23 Jul 03:24:18 03:32:30 32° 91° (E) 03:39:46 435.800 - 435.900 CW/SSB
AO-27 23 Jul 03:33:26 03:38:26 46° 99° (E) 03:43:23 436.795 MHz FM
Uribyol 2 23 Jul 03:37:11 03:42:15 53° 100° (E) 03:47:15 436.500 FM
OPAL 23 Jul 03:37:41 03:40:57 18° 62° (ENE) 03:44:12 ?
UOSAT-12 23 Jul 03:38:39 03:40:48 13° 253° (WSW) 03:42:57 437.025 FM, 437.400 FM
ISS 23 Jul 03:44:47 03:47:48 30° 329° (NNW) 03:50:50 145.800 FM
Sapphire 23 Jul 03:45:20 03:50:36 53° 302° (WNW) 03:55:54 437.095 MHz 1200 baud AX-25 AFSK
AO-Echo 23 Jul 03:51:15 03:56:25 73° 102° (ESE) 04:01:23 ?
PCSat 23 Jul 04:20:29 04:25:02 27° 308° (NW) 04:29:36 145.825 MHz
Oscar 19 23 Jul 04:21:45 04:26:06 28° 292° (WNW) 04:30:27 437.125 CW, 437.150 USB
TMSAT-1 23 Jul 04:37:36 04:42:49 55° 100° (E) 04:47:59 436.925 FM
Oscar 16 23 Jul 04:50:03 04:53:01 16° 297° (WNW) 04:55:58 437.025 USB, Beacon 2401.1428
ITAMSAT 1 23 Jul 04:55:51 05:00:18 30° 292° (WNW) 05:04:43 435.822 SSB
Gurwin Techsat 1B 23 Jul 04:57:37 05:02:54 70° 286° (WNW) 05:08:10 435.225 FM
AO-7 23 Jul 05:07:31 05:14:25 28° 96° (E) 05:21:15 29.400 - 29.500 MHz
AO-27 23 Jul 05:13:50 05:17:35 21° 295° (WNW) 05:21:20 436.795 MHz FM
JAS-1B 23 Jul 05:13:59 05:23:28 61° 291° (WNW) 05:31:46 435.800 - 435.900 CW/SSB
OPAL 23 Jul 05:14:36 05:19:25 51° 258° (WSW) 05:24:15 ?
Uribyol 2 23 Jul 05:17:51 05:21:16 18° 296° (WNW) 05:24:41 436.500 FM
ISS 23 Jul 05:24:48 05:25:24 10° 349° (NNW) 05:26:00 145.800 FM
AO-Echo 23 Jul 05:32:06 05:34:28 13° 299° (WNW) 05:36:48 ?
Uosat F 23 Jul 05:42:24 05:47:18 51° 100° (E) 05:52:09 435.120 FM
TMSAT-1 23 Jul 06:18:46 06:22:15 18° 296° (WNW) 06:25:45 436.925 FM
AO-7 23 Jul 06:59:26 07:07:35 61° 293° (WNW) 07:15:41 29.400 - 29.500 MHz
JAS-1B 23 Jul 07:07:14 07:11:47 15° 312° (NW) 07:16:10 435.800 - 435.900 CW/SSB
JAS-2 23 Jul 07:17:51 07:23:11 30° 93° (E) 07:28:00 435.800 - 435.900 CW/SSB, 435.910 FM
Uosat F 23 Jul 07:22:20 07:25:39 18° 296° (WNW) 07:28:58 435.120 FM
STRAND 1 23 Jul 07:26:39 07:31:43 63° 73° (ENE) 07:36:49 ?
Hamsat 23 Jul 07:34:51 07:39:05 61° 100° (E) 07:43:20 145.90 MHz
KITSAT 1 23 Jul 07:38:53 07:46:16 41° 109° (ESE) 07:53:40 435.175 FM
Lituanica SAT-1 23 Jul 07:43:34 07:45:38 36° 35° (NE) 07:47:43 437.275 MHz beacon
PANSAT 23 Jul 08:20:19 08:21:21 11° 164° (SSE) 08:22:24 not established
MaSat-1 23 Jul 08:20:40 08:25:07 26° 55° (NE) 08:29:26 437.345 MHz
Oscar 10/S400 23 Jul 08:34:27 09:43:16 22° 258° (WSW) 12:04:11 145.825 - 145.975 CW/USB, Beacon 145.810 USB
ISS 23 Jul 08:38:12 08:41:07 26° 29° (NNE) 08:44:00 145.800 FM
AO-7 23 Jul 08:55:30 08:58:39 13° 313° (NW) 09:01:47 29.400 - 29.500 MHz
JAS-2 23 Jul 09:02:41 09:08:19 36° 294° (WNW) 09:13:23 435.800 - 435.900 CW/SSB, 435.910 FM
STRAND 1 23 Jul 09:08:39 09:11:18 14° 269° (W) 09:13:58 ?
Hamsat 23 Jul 09:13:07 09:14:32 12° 296° (WNW) 09:15:57 145.90 MHz
SO-67 23 Jul 09:17:47 09:21:07 43° 285° (WNW) 09:24:25 435.3500 MHz FM
KITSAT 1 23 Jul 09:33:52 09:41:32 45° 308° (NW) 09:49:16 435.175 FM
MaSat-1 23 Jul 09:57:38 10:02:40 43° 252° (WSW) 10:07:26 437.345 MHz
PANSAT 23 Jul 09:58:12 10:00:52 18° 176° (S) 10:03:33 not established
Saudisat 1A 23 Jul 10:09:01 10:13:26 83° 119° (ESE) 10:17:53 436.775 MHz
ISS 23 Jul 10:14:47 10:17:53 35° 226° (SW) 10:20:59 145.800 FM
Oscar 11 23 Jul 10:16:27 10:16:31 10° 90° (E) 10:16:34 145.825 FM, Beacon 2401.500 USB
HO-68 23 Jul 10:50:01 10:57:10 72° 104° (ESE) 11:04:17 435.675 MHz FM
Sapphire 23 Jul 10:52:59 10:55:52 14° 44° (NE) 10:58:45 437.095 MHz 1200 baud AX-25 AFSK
PCSat 23 Jul 11:25:59 11:30:33 27° 51° (NE) 11:35:04 145.825 MHz
KITSAT 1 23 Jul 11:35:57 11:39:21 13° 333° (NNW) 11:42:47 435.175 FM
PANSAT 23 Jul 11:38:02 11:40:27 16° 189° (S) 11:42:51 not established
Oscar 11 23 Jul 11:48:47 11:53:04 63° 285° (WNW) 11:57:21 145.825 FM, Beacon 2401.500 USB
Saudisat 1A 23 Jul 11:51:33 11:53:36 13° 318° (NW) 11:55:40 436.775 MHz
FUNcube-1 23 Jul 11:52:33 11:56:35 47° 99° (E) 12:00:37 145.950 - 145.970 MHz USB
Sapphire 23 Jul 12:34:38 12:40:05 88° 63° (ENE) 12:45:30 437.095 MHz 1200 baud AX-25 AFSK
HO-68 23 Jul 12:39:02 12:44:10 22° 301° (WNW) 12:49:18 435.675 MHz FM
PCSat 23 Jul 13:09:00 13:14:06 43° 249° (WSW) 13:19:11 145.825 MHz
FUNcube-1 23 Jul 13:30:34 13:32:35 13° 295° (WNW) 13:34:35 145.950 - 145.970 MHz USB
Oscar 19 23 Jul 13:57:45 14:02:29 40° 70° (ENE) 14:07:14 437.125 CW, 437.150 USB
JAS-1B 23 Jul 14:06:39 14:13:22 26° 56° (NE) 14:20:39 435.800 - 435.900 CW/SSB
Sapphire 23 Jul 14:21:37 14:22:40 11° 259° (WSW) 14:23:43 437.095 MHz 1200 baud AX-25 AFSK
RS-15 23 Jul 14:22:11 14:32:06 38° 107° (ESE) 14:41:46 29.354 - 29.394 USB, Beacon 29.352 USB
Oscar 16 23 Jul 14:24:35 14:29:41 78° 75° (ENE) 14:34:49 437.025 USB, Beacon 2401.1428
ITAMSAT 1 23 Jul 14:32:48 14:37:40 41° 70° (ENE) 14:42:32 435.822 SSB
Gurwin Techsat 1B 23 Jul 14:39:18 14:43:00 20° 64° (ENE) 14:46:43 435.225 FM
AO-27 23 Jul 14:50:01 14:55:09 62° 73° (ENE) 15:00:19 436.795 MHz FM
Uribyol 2 23 Jul 14:53:31 14:58:41 69° 74° (ENE) 15:03:52 436.500 FM
AO-Echo 23 Jul 15:02:04 15:07:19 80° 75° (ENE) 15:12:40 ?
SO-50 23 Jul 15:11:22 15:15:49 77° 302° (WNW) 15:20:22 436.795 FM
KITSAT 1 23 Jul 15:33:56 15:39:16 19° 36° (NE) 15:44:34 435.175 FM
Oscar 19 23 Jul 15:38:03 15:41:57 22° 266° (W) 15:45:52 437.125 CW, 437.150 USB
JAS-1B 23 Jul 15:54:18 16:02:37 81° 257° (WSW) 16:12:19 435.800 - 435.900 CW/SSB
TMSAT-1 23 Jul 15:56:49 16:02:06 74° 75° (ENE) 16:07:24 436.925 FM
AO-7 23 Jul 16:04:53 16:12:13 36° 61° (ENE) 16:19:32 29.400 - 29.500 MHz
UOSAT-12 23 Jul 16:06:55 16:10:45 27° 112° (ESE) 16:14:39 437.025 FM, 437.400 FM
Oscar 16 23 Jul 16:08:26 16:09:35 11° 270° (W) 16:10:44 437.025 USB, Beacon 2401.1428
ITAMSAT 1 23 Jul 16:13:15 16:17:16 22° 266° (W) 16:21:19 435.822 SSB
Gurwin Techsat 1B 23 Jul 16:17:24 16:22:33 51° 260° (W) 16:27:44 435.225 FM
AO-27 23 Jul 16:32:11 16:35:03 15° 268° (W) 16:37:55 436.795 MHz FM
RS-15 23 Jul 16:33:01 16:43:56 59° 308° (NW) 16:54:42 29.354 - 29.394 USB, Beacon 29.352 USB
Uribyol 2 23 Jul 16:36:20 16:38:37 13° 269° (W) 16:40:54 436.500 FM
AO-Echo 23 Jul 16:45:02 16:46:39 11° 271° (W) 16:48:17 ?
Uosat F 23 Jul 16:54:05 16:59:02 61° 73° (ENE) 17:04:01 435.120 FM
SO-50 23 Jul 16:55:55 16:57:10 11° 321° (NW) 16:58:25 436.795 FM
OPAL 23 Jul 17:25:41 17:30:31 45° 102° (ESE) 17:35:23 ?
KITSAT 1 23 Jul 17:28:08 17:36:14 71° 59° (ENE) 17:44:15 435.175 FM
JAS-2 23 Jul 17:28:51 17:33:22 17° 58° (ENE) 17:37:46 435.800 - 435.900 CW/SSB, 435.910 FM
TMSAT-1 23 Jul 17:40:30 17:42:32 12° 270° (W) 17:44:35 436.925 FM
UOSAT-12 23 Jul 17:46:37 17:50:46 33° 309° (NW) 17:55:00 437.025 FM, 437.400 FM
JAS-1B 23 Jul 17:49:57 17:54:40 16° 277° (W) 17:59:45 435.800 - 435.900 CW/SSB
AO-7 23 Jul 17:56:37 18:04:40 51° 258° (WSW) 18:12:47 29.400 - 29.500 MHz
Hamsat 23 Jul 18:27:01 18:30:48 34° 72° (ENE) 18:34:36 145.90 MHz
Uosat F 23 Jul 18:35:36 18:38:12 14° 268° (W) 18:40:49 435.120 FM
Saudisat 1A 23 Jul 18:37:20 18:41:33 42° 54° (NE) 18:45:42 436.775 MHz
RS-15 23 Jul 18:51:42 18:59:19 21° 337° (NNW) 19:06:58 29.354 - 29.394 USB, Beacon 29.352 USB
Oscar 10/S400 23 Jul 18:52:59 19:05:22 17° 143° (SE) 19:17:40 145.825 - 145.975 CW/USB, Beacon 145.810 USB
OPAL 23 Jul 19:05:23 19:09:04 21° 297° (WNW) 19:12:47 ?
JAS-2 23 Jul 19:09:27 19:17:19 81° 75° (ENE) 19:24:57 435.800 - 435.900 CW/SSB, 435.910 FM
KITSAT 1 23 Jul 19:24:51 19:30:51 24° 256° (WSW) 19:36:50 435.175 FM
STRAND 1 23 Jul 19:39:33 19:43:37 24° 95° (E) 19:47:39 ?
SO-67 23 Jul 19:49:20 19:52:36 42° 74° (ENE) 19:55:55 435.3500 MHz FM
Hamsat 23 Jul 20:04:07 20:06:52 17° 267° (W) 20:09:38 145.90 MHz
Saudisat 1A 23 Jul 20:17:46 20:20:48 18° 250° (WSW) 20:23:49 436.775 MHz
JAS-2 23 Jul 20:57:37 21:02:53 19° 270° (W) 21:08:07 435.800 - 435.900 CW/SSB, 435.910 FM
RS-15 23 Jul 21:11:00 21:17:46 18° 15° (NNE) 21:24:35 29.354 - 29.394 USB, Beacon 29.352 USB
HO-68 23 Jul 21:16:49 21:23:33 46° 67° (ENE) 21:30:18 435.675 MHz FM
STRAND 1 23 Jul 21:18:11 21:22:53 37° 290° (WNW) 21:27:32 ?
Oscar 11 23 Jul 22:42:05 22:46:23 83° 76° (ENE) 22:50:42 145.825 FM, Beacon 2401.500 USB
FUNcube-1 23 Jul 22:47:41 22:51:37 33° 71° (ENE) 22:55:29 145.950 - 145.970 MHz USB
HO-68 23 Jul 23:05:06 23:11:21 32° 263° (W) 23:17:38 435.675 MHz FM
RS-15 23 Jul 23:23:45 23:34:09 44° 46° (NE) 23:44:50 29.354 - 29.394 USB, Beacon 29.352 USB
SO-50 23 Jul 23:44:16 23:48:59 62° 57° (ENE) 23:53:45 436.795 FM
MaSat-1 23 Jul 23:47:38 23:51:24 62° 297° (WNW) 23:55:54 437.345 MHz
FUNcube-1 24 Jul 00:24:50 00:28:03 20° 266° (W) 00:31:14 145.950 - 145.970 MHz USB
UOSAT-12 24 Jul 00:37:53 00:41:17 19° 45° (NE) 00:44:38 437.025 FM, 437.400 FM
